• In France
  • List of Countries
  • For 7 days
  • Water Temperature
  • Satellite Maps
  • Weather Map
  • Weather Widgets
  • user-avatar
    Login

    Hourly Weather Balahani

    Today, 22 August, Wednesday

    Time Temperature Precipitation Wind Pressure Humidity
    00:00 +18°C° 0 mm 2 mps 684 mmHg 72%
    01:00 +17°C° 0 mm 2 mps 684 mmHg 69%
    02:00 +17°C° 0 mm 2 mps 684 mmHg 66%
    03:00 +17°C° 0 mm 2 mps 684 mmHg 65%
    04:00 +17°C° 0 mm 2 mps 684 mmHg 64%
    05:00 +18°C° 0 mm 2 mps 684 mmHg 64%
    06:00 +18°C° 0 mm 2 mps 684 mmHg 63%
    07:00 +20°C° 0 mm 2 mps 685 mmHg 58%
    08:00 +23°C° 0 mm 1 mps 685 mmHg 53%
    09:00 +25°C° 0 mm 1 mps 685 mmHg 47%
    10:00 +26°C° 0 mm 2 mps 685 mmHg 47%
    11:00 +27°C° 0 mm 2 mps 685 mmHg 46%
    12:00 +27°C° 0 mm 2 mps 685 mmHg 45%
    13:00 +27°C° 0.1 mm 2 mps 685 mmHg 47%
    14:00 +27°C° 0.1 mm 2 mps 685 mmHg 49%
    15:00 +27°C° 0.1 mm 3 mps 685 mmHg 50%
    16:00 +26°C° 0.2 mm 2 mps 684 mmHg 56%
    17:00 +25°C° 0.2 mm 2 mps 684 mmHg 61%
    18:00 +24°C° 0.2 mm 1 mps 684 mmHg 67%
    19:00 +23°C° 0.2 mm 1 mps 684 mmHg 70%
    20:00 +22°C° 0.2 mm 1 mps 684 mmHg 72%
    21:00 +21°C° 0.2 mm 1 mps 685 mmHg 75%
    22:00 +21°C° 0.1 mm 1 mps 685 mmHg 75%
    23:00 +19°C° 0.1 mm 2 mps 685 mmHg 76%

    Tomorrow, 23 August, Thursday

    Time Temperature Precipitation Wind Pressure Humidity
    00:00 +19°C° 0.1 mm 2 mps 685 mmHg 77%
    01:00 +18°C° 0 mm 2 mps 685 mmHg 77%
    02:00 +18°C° 0 mm 2 mps 684 mmHg 77%
    03:00 +18°C° 0 mm 2 mps 684 mmHg 77%
    04:00 +18°C° 0 mm 2 mps 685 mmHg 76%
    05:00 +18°C° 0 mm 2 mps 685 mmHg 74%
    06:00 +18°C° 0 mm 2 mps 685 mmHg 73%
    07:00 +20°C° 0 mm 2 mps 686 mmHg 65%
    08:00 +23°C° 0 mm 2 mps 686 mmHg 58%
    09:00 +25°C° 0 mm 2 mps 686 mmHg 50%
    10:00 +26°C° 0 mm 2 mps 687 mmHg 49%
    11:00 +27°C° 0 mm 2 mps 687 mmHg 47%
    12:00 +27°C° 0 mm 3 mps 687 mmHg 45%
    13:00 +27°C° 0 mm 3 mps 687 mmHg 46%
    14:00 +27°C° 0 mm 3 mps 687 mmHg 47%
    15:00 +27°C° 0 mm 3 mps 686 mmHg 49%
    16:00 +26°C° 0 mm 2 mps 686 mmHg 53%
    17:00 +25°C° 0 mm 2 mps 686 mmHg 58%
    18:00 +24°C° 0 mm 2 mps 686 mmHg 62%
    19:00 +21°C° 0 mm 2 mps 686 mmHg 67%
    20:00 +21°C° 0 mm 1 mps 686 mmHg 72%
    21:00 +20°C° 0 mm 1 mps 686 mmHg 76%
    22:00 +19°C° 0 mm 1 mps 687 mmHg 76%
    23:00 +19°C° 0 mm 1 mps 687 mmHg 77%

    Day after tomorrow, 24 August, Friday

    Time Temperature Precipitation Wind Pressure Humidity
    00:00 +19°C° 0 mm 1 mps 687 mmHg 77%
    01:00 +17°C° 0 mm 2 mps 686 mmHg 77%
    02:00 +17°C° 0 mm 2 mps 686 mmHg 76%
    03:00 +17°C° 0 mm 2 mps 686 mmHg 76%
    04:00 +17°C° 0 mm 2 mps 686 mmHg 76%
    05:00 +17°C° 0 mm 2 mps 686 mmHg 75%
    06:00 +18°C° 0 mm 2 mps 686 mmHg 75%
    07:00 +20°C° 0 mm 2 mps 687 mmHg 69%
    08:00 +22°C° 0 mm 3 mps 687 mmHg 64%
    09:00 +25°C° 0 mm 3 mps 687 mmHg 59%
    10:00 +25°C° 0 mm 3 mps 687 mmHg 58%
    11:00 +26°C° 0 mm 4 mps 687 mmHg 58%
    12:00 +26°C° 0 mm 4 mps 687 mmHg 57%
    13:00 +26°C° 0.1 mm 4 mps 687 mmHg 59%
    14:00 +26°C° 0.1 mm 4 mps 686 mmHg 60%
    15:00 +26°C° 0.1 mm 4 mps 686 mmHg 61%
    16:00 +25°C° 0.2 mm 4 mps 686 mmHg 66%
    17:00 +24°C° 0.2 mm 3 mps 686 mmHg 70%
    18:00 +22°C° 0.2 mm 3 mps 685 mmHg 75%
    19:00 +20°C° 0.1 mm 3 mps 685 mmHg 77%
    20:00 +19°C° 0.1 mm 2 mps 685 mmHg 79%
    21:00 +18°C° 0.1 mm 2 mps 685 mmHg 82%
    22:00 +18°C° 0 mm 2 mps 685 mmHg 79%
    23:00 +18°C° 0 mm 2 mps 685 mmHg 77%

    25 August, Saturday

    Time Temperature Precipitation Wind Pressure Humidity
    00:00 +18°C° 0 mm 2 mps 685 mmHg 75%
    01:00 +17°C° 0 mm 2 mps 685 mmHg 74%
    02:00 +17°C° 0 mm 2 mps 684 mmHg 73%
    03:00 +17°C° 0 mm 2 mps 684 mmHg 73%
    04:00 +17°C° 0 mm 2 mps 684 mmHg 72%
    05:00 +18°C° 0 mm 2 mps 684 mmHg 71%
    06:00 +18°C° 0 mm 2 mps 684 mmHg 70%
    07:00 +20°C° 0 mm 2 mps 684 mmHg 63%
    08:00 +24°C° 0 mm 2 mps 685 mmHg 56%
    09:00 +26°C° 0 mm 2 mps 685 mmHg 48%
    10:00 +27°C° 0 mm 3 mps 685 mmHg 47%
    11:00 +28°C° 0 mm 3 mps 685 mmHg 46%
    12:00 +28°C° 0 mm 3 mps 685 mmHg 44%
    13:00 +28°C° 0.2 mm 4 mps 685 mmHg 46%
    14:00 +28°C° 0.2 mm 4 mps 684 mmHg 47%
    15:00 +28°C° 0.2 mm 4 mps 684 mmHg 48%
    16:00 +26°C° 0.1 mm 3 mps 684 mmHg 53%
    17:00 +25°C° 0.1 mm 3 mps 684 mmHg 59%
    18:00 +24°C° 0.1 mm 2 mps 683 mmHg 64%
    19:00 +23°C° 0 mm 2 mps 683 mmHg 68%
    20:00 +20°C° 0 mm 2 mps 683 mmHg 72%
    21:00 +19°C° 0 mm 2 mps 683 mmHg 76%
    22:00 +19°C° 0 mm 2 mps 683 mmHg 76%
    23:00 +19°C° 0 mm 2 mps 683 mmHg 76%

    26 August, Sunday

    Time Temperature Precipitation Wind Pressure Humidity
    00:00 +19°C° 0 mm 2 mps 683 mmHg 75%
    01:00 +19°C° 0 mm 1 mps 683 mmHg 75%
    02:00 +19°C° 0 mm 1 mps 682 mmHg 74%
    03:00 +19°C° 0 mm 1 mps 682 mmHg 73%
    04:00 +19°C° 0 mm 1 mps 682 mmHg 71%
    05:00 +19°C° 0 mm 1 mps 682 mmHg 69%
    06:00 +19°C° 0 mm 1 mps 683 mmHg 67%
    07:00 +21°C° 0 mm 2 mps 683 mmHg 60%
    08:00 +24°C° 0 mm 2 mps 683 mmHg 54%
    09:00 +26°C° 0 mm 2 mps 684 mmHg 47%
    10:00 +27°C° 0 mm 3 mps 684 mmHg 45%
    11:00 +28°C° 0 mm 3 mps 683 mmHg 43%
    12:00 +29°C° 0 mm 3 mps 683 mmHg 41%
    13:00 +29°C° 0 mm 4 mps 683 mmHg 42%
    14:00 +28°C° 0 mm 4 mps 683 mmHg 42%
    15:00 +28°C° 0 mm 4 mps 682 mmHg 42%
    16:00 +27°C° 0 mm 3 mps 682 mmHg 48%
    17:00 +25°C° 0 mm 3 mps 682 mmHg 54%
    18:00 +24°C° 0 mm 2 mps 682 mmHg 59%
    19:00 +23°C° 0 mm 2 mps 682 mmHg 63%
    20:00 +20°C° 0 mm 2 mps 682 mmHg 67%
    21:00 +19°C° 0 mm 2 mps 682 mmHg 70%
    22:00 +19°C° 0.1 mm 2 mps 682 mmHg 68%
    23:00 +19°C° 0.1 mm 2 mps 682 mmHg 66%

    27 August, Monday

    Time Temperature Precipitation Wind Pressure Humidity
    00:00 +19°C° 0.1 mm 2 mps 681 mmHg 63%
    01:00 +18°C° 0 mm 2 mps 681 mmHg 62%
    02:00 +19°C° 0 mm 1 mps 681 mmHg 60%
    03:00 +19°C° 0 mm 1 mps 681 mmHg 58%
    04:00 +19°C° 0 mm 1 mps 681 mmHg 58%
    05:00 +19°C° 0 mm 1 mps 681 mmHg 58%
    06:00 +19°C° 0 mm 1 mps 682 mmHg 57%
    07:00 +21°C° 0 mm 1 mps 682 mmHg 53%
    08:00 +24°C° 0 mm 2 mps 682 mmHg 48%
    09:00 +26°C° 0 mm 2 mps 683 mmHg 44%
    10:00 +27°C° 0 mm 2 mps 683 mmHg 43%
    11:00 +27°C° 0 mm 3 mps 683 mmHg 43%
    12:00 +28°C° 0 mm 3 mps 683 mmHg 42%
    13:00 +28°C° 0.2 mm 3 mps 683 mmHg 43%
    14:00 +27°C° 0.2 mm 3 mps 683 mmHg 45%
    15:00 +27°C° 0.2 mm 3 mps 682 mmHg 46%
    16:00 +26°C° 0.1 mm 3 mps 682 mmHg 52%
    17:00 +24°C° 0.1 mm 2 mps 683 mmHg 58%
    18:00 +23°C° 0.1 mm 2 mps 683 mmHg 64%
    19:00 +21°C° 0.2 mm 2 mps 683 mmHg 70%
    20:00 +20°C° 0.2 mm 1 mps 683 mmHg 75%
    21:00 +19°C° 0.2 mm 1 mps 683 mmHg 81%
    22:00 +19°C° 0.1 mm 1 mps 683 mmHg 81%
    23:00 +19°C° 0.1 mm 1 mps 683 mmHg 81%
    Show more